Location: Bottenau
(48.5138°N, 8.0462°E)
Time: 16:11:43
(UTC+00:00)

Timation 1 Rocket - Pass Details

Date: 18 April 2021
Orbit: 900 x 907 km, 70.0° (Epoch: 06 May)

Event Time Altitude Azimuth Distance (km) Brightness Sun altitude
Exits shadow 21:33:37 64° 160° (SSE) 993 4.2 -25.3°
Maximum altitude 21:34:19 71° 116° (ESE) 953 4.2 -25.3°
Drops below altitude 10° 21:40:15 10° 33° (NNE) 2,587 7.0 -25.8°
Sets 21:42:46 0° 32° (NNE) 3,532 7.8 -26.0°
